Regional Weather Roundup
Issued by NWS

Home | Current Version | Previous Version | Graphics & Text | Print | Product List | Glossary On
Versions: 1 2 3 4 5 6 7 8 9 10 11 12 13 14 15 16 17 18 19 20 21 22 23 24 25 26 27 28 29 30 31 32 33 34 35 36 37 38 39 40 41 42 43 44 45 46 47 48 49 50
000
ASUS43 KDMX 291307
RWRIA

WEATHER ROUNDUP FOR IOWA
NATIONAL WEATHER SERVICE DES MOINES IA
800 AM CDT MON JUN 29 2015

NOTE: "FAIR" INDICATES FEW OR NO CLOUDS BELOW 12,000 FEET WITH NO
SIGNIFICANT WEATHER AND/OR OBSTRUCTIONS TO VISIBILITY.

* - THESE STATIONS ARE NOT NWS STATIONS...THUS NOT UNDER NWS
QUALITY CONTROL.  THEY ALSO DO NOT REPORT WEATHER SUCH
AS PRECIPITATION OR FOG.

IAZ001>003-012>014-020>022-031>034-043>046-291400-
   NORTHWEST IOWA

CITY           SKY/WX    TMP DP  RH WIND       PRES   REMARKS
CARROLL *      SUNNY     68  63  83 W7        29.90S
CHEROKEE *     SUNNY     64  63  94 CALM      29.92S FOG
DENISON *      SUNNY     66  63  88 CALM      29.91R
LE MARS *      SUNNY     64  63  94 CALM      29.95R
ORANGE CITY *  SUNNY     64  61  88 NW5       29.94R
SHELDON *      SUNNY     64  64 100 NW7       29.92S
SIOUX CITY     SUNNY     67  60  78 NW8       29.94R
SPENCER        SUNNY     67  62  84 NW5       29.92R
STORM LAKE *   SUNNY     66  61  82 NW7       29.93R
$$

IAZ055>058-069>071-079>083-090>094-291400-
   SOUTHWEST IOWA

CITY           SKY/WX    TMP DP  RH WIND       PRES   REMARKS
ATLANTIC *     SUNNY     66  63  88 CALM      29.92S
AUDUBON *      SUNNY     70  63  78 W6        29.92S
CLARINDA *     SUNNY     70  63  78 CALM      29.94S
COUNCIL BLFS * SUNNY     68  61  77 NW3       29.94R
CRESTON *      SUNNY     68  63  83 W8        29.92S
HARLAN  *      SUNNY     66  66 100 CALM      29.96R
LAMONI         SUNNY     70  63  78 NW8       29.90R
RED OAK *      MOSUNNY   68  63  83 CALM      29.93R
SHENANDOAH *   SUNNY     68  63  83 SW5       29.93S
$$

IAZ047>049-059>061-072>074-084-291400-
   CENTRAL IOWA

CITY           SKY/WX    TMP DP  RH WIND       PRES   REMARKS
AMES           SUNNY     69  62  78 NW9       29.87R
ANKENY *       SUNNY     70  64  83 NW8       29.87R
CHARITON *     SUNNY     68  64  88 NW10      29.88R
DES MOINES     SUNNY     71  62  73 NW8       29.87R
GRINNELL*      SUNNY     64  64 100 W6        29.87R
KNOXVILLE *    SUNNY     68  64  88 NW8       29.86R
MARSHALLTOWN   SUNNY     66  63  90 NW7       29.86R
PELLA *        SUNNY     70  68  94 NW6       29.87S
PERRY *          N/A     68  63  83 NW7       29.89S
$$

IAZ004>006-015-016-023>025-035-036-291400-
   NORTH CENTRAL IOWA

CITY           SKY/WX    TMP DP  RH WIND       PRES   REMARKS
ALGONA *       SUNNY     68  63  83 NW8       29.89S
CLARION *      SUNNY     66  63  88 NW7       29.88R
ESTHERVILLE    SUNNY     66  62  87 NW9       29.90R
FORT DODGE *   SUNNY     66  61  82 CALM      29.90R
MASON CITY     SUNNY     68  64  87 NW8       29.87R
FOREST CITY *  SUNNY     66  63  88 NW6       29.87S
IOWA FALLS *     N/A     66  63  88 NW6       29.88R
$$

IAZ007>011-017>019-026>030-037>042-050>054-066-291400-
   NORTHEAST IOWA

CITY           SKY/WX    TMP DP  RH WIND       PRES   REMARKS
CEDAR RAPIDS   PTSUNNY   65  65 100 NW9       29.84R
CHARLES CITY * SUNNY     66  66 100 CALM      29.86R
CLINTON *      CLOUDY    61  59  94 CALM      29.86R VSB 1/4
DECORAH *        N/A    N/A N/A N/A MISG        N/A
DUBUQUE        MOSUNNY   66  63  90 N6        29.84R
MONTICELLO *   FOG       63  63 100 CALM      29.83S VSB 3/4
OELWEIN *        N/A    N/A N/A N/A MISG        N/A
WATERLOO       SUNNY     64  63  96 MISG      29.84S
$$

IAZ064-065-067-068-078-291400-
   EAST CENTRAL IOWA

CITY           SKY/WX    TMP DP  RH WIND       PRES   REMARKS
DAVENPORT      FOG       61  60  97 W5        29.84R VSB 1/4
IOWA CITY      CLOUDY    64  63  96 NW10      29.86R FOG
MT. PLEASANT * CLOUDY    68  64  88 N7        29.86R FOG
MUSCATINE *    CLOUDY    63  63 100 N3        29.85R FOG
QUAD CITIES    CLOUDY    65  62  90 W5        29.83R FOG
$$

IAZ062-063-075>077-085>089-095>099-291400-
   SOUTHEAST IOWA

CITY           SKY/WX    TMP DP  RH WIND       PRES   REMARKS
BURLINGTON     CLOUDY    64  64 100 N7        29.85R
FAIRFIELD *    CLOUDY    66  64  94 NW8       29.86R FOG
FORT MADISON * CLOUDY    66  66 100 NW6       29.86R FOG
KEOKUK *       CLOUDY    66  66 100 NW7       29.85R
OSKALOOSA *      N/A     66  66 100 NW6       29.86S
OTTUMWA        CLOUDY    67  67 100 NW7       29.85R FOG
WASHINGTON *   FOG       66  66 100 NW7       29.87R VSB 0
$$

ABBREVIATIONS USED IN REMARKS
   TC - TEMPERATURES IN CELSIUS
  WCI - WIND CHILL INDEX
   HX - HEAT INDEX
  VSB - VISIBILITY
$$




USA.gov is the U.S. government's official web portal to all federal, state and local government web resources and services.